Volver al catálogo

STARLINK-37884

ActivoComunicacionesSSO
NORAD 69655·PAYLOAD·🇺🇸 United States

Lanzado Jun 21, 2026 desde Vandenberg Space Force Base

Loading…

Próximos Pases (próximas 24 horas)

TLE

ActualizadoSource: CelesTrak SupGP

Época: Sep 14, 2026, 22:50 UTC

1 69655C 26143G   26257.95187500  .00023458  00000+0  72827-3 0  2571
2 69655  97.2842 301.1522 0001343  93.1596  54.7245 15.33424093    15

Sigue STARLINK-37884 en tiempo real con AllMySat

Download on the App Store